Location: Austin
(30.3000°N, 97.7500°W)
Time: 01:26:34
(UTC-05:00)

Cosmos 2034 Rocket - Pass Details

Date: 15 May 2024
Orbit: 957 x 1001 km, 82.9° (Epoch: 29 May)

Event Time Altitude Azimuth Distance (km) Brightness Sun altitude
Rises 22:51:37 0° 354° (N) 3,652 7.8 -27.9°
Reaches altitude 10° 22:54:06 10° 355° (N) 2,708 7.0 -28.3°
Maximum altitude 23:00:19 89° 90° (E) 977 3.8 -29.2°
Enters shadow 23:00:30 86° 169° (SSE) 980 3.8 -29.2°
